{"data":{"norad_id":46563,"intl_designator":"2020-070AH","name":"STARLINK-1730","alt_names":[],"object_type":"PAYLOAD","status":"ACTIVE","operator":null,"country":"US","launch_date":"2020-10-06","launch_site_code":"AFETR","launch_vehicle":null,"mission":null,"orbit_class":"UNKNOWN","rcs_meters":null,"size_class":null,"mass_kg":null,"dimensions":null,"purposes":["comms"],"wikipedia_slug":null,"has_3d_model":false,"image_url":null,"decayed_at":null,"tle_current":{"epoch":"2026-05-25T02:36:13.498848Z","epoch_age_seconds":65943,"freshness":"FRESH","line1":"1 46563U 20070AH  26145.10848957  .00082370  00000+0  11408-2 0  9998","line2":"2 46563  53.0249 115.3436 0005900  49.1690 310.9831 15.56387436312127","mean_motion":15.56387436,"eccentricity":0.00059,"inclination_deg":53.0249,"raan_deg":115.3436,"arg_perigee_deg":49.169,"mean_anomaly_deg":310.9831,"bstar":0.0011408,"rev_number":31212,"period_min":92.521949656756,"perigee_km":394.12452741227,"apogee_km":402.12051364649,"semimajor_km":6776.2595205294,"source":"CELESTRAK","updated_at":"2026-05-25T13:38:16.512204Z"}}}